Content
SEND FEEDBACK

Daily
Averages
Monthly
Summary
United States of America

ST. LOUIS, MISSOURI


Home > North America > United States > Missouri
Elevation: 535 feet     Latitude: 38 45N     Longitude: 090 22W

WEATHER
 
SELECT A DAY
Number of Records: 199,614;   Date Range: 1/1/95 - 10/19/14
 
SHARE

PRINT THIS DATA

[ ← Previous Day ]
WEATHER ALMANAC - MAY 6, 2013
[ Next Day → ]
[ °C ]   °F
Weather ElementAverageHighLow
Temperature60.7 °F70 °F (3:54 pm)51.1 °F (6:54 am)
Dewpoint52.3 °F55.9 °F (6:54 pm)48.9 °F (6:54 am)
Humidity75.2 %94 % (4:25 am)51 % (3:54 pm)
Barometer29.95 in29.99 in (8:54 am)29.92 in (2:54 am)
Wind Speed5.7 mph12.7 mph (10:54 am)
Wind Gust21.9 mph (12:54 pm)
Weather ElementAverage
Visibility10 mi
Wind DirectionESE (108.8 °)

Weather ElementTotal
Precipitation---
Heating Degree Days4.5 (Base 65)
Growing Degree Days10.6 (Base 50)
Averaged from 25 records on May 6, 2013
WEATHER CONDITIONS BREAKOUT
WIND DIRECTION BREAKOUT
WEATHER BY HOUR - MAY 6, 2013
[ °C ]   °F
Local TimeTemperatureDewpointHumidityBarometerVisibilityWind DirectionWind SpeedGust SpeedPrecipitationEventsConditions
1:46 AM55.4 °F51.8 °F88 %29.93 in10.0 miNNE (30°)4.6 mphPartly Cloudy
1:54 AM55.9 °F51.1 °F84 %29.93 in10.0 miNNE (20°)4.6 mphPartly Cloudy
2:54 AM55.0 °F52.0 °F89 %29.92 in10.0 miNorth (10°)4.6 mphOvercast
3:54 AM55.9 °F52.0 °F87 %29.93 in10.0 miNorth (360°)6.9 mphOvercast
4:25 AM53.6 °F51.8 °F94 %29.92 in10.0 miNorth (350°)5.8 mphMostly Cloudy
4:54 AM55.0 °F51.1 °F86 %29.92 in10.0 miNorth (350°)8.1 mphOvercast
5:54 AM53.1 °F50.0 °F89 %29.95 in10.0 miCalm0.00 inRainLight Rain
6:54 AM51.1 °F48.9 °F92 %29.96 in10.0 miCalm0.00 inMostly Cloudy
7:54 AM55.9 °F51.1 °F84 %29.98 in10.0 miNorth (10°)4.6 mphMostly Cloudy
8:54 AM60.1 °F53.1 °F78 %29.99 in10.0 miNNW (340°)8.1 mphOvercast
9:54 AM62.1 °F53.1 °F72 %29.98 in10.0 miNNW (340°)10.4 mphMostly Cloudy
10:54 AM64.0 °F50.0 °F60 %29.98 in10.0 miNorth (360°)12.7 mphOvercast
11:54 AM64.9 °F51.1 °F61 %29.98 in10.0 miNorth (10°)10.4 mphMostly Cloudy
12:54 PM66.9 °F48.9 °F52 %29.96 in10.0 miNE (40°)11.5 mph21.9 mphOvercast
1:54 PM68.0 °F51.1 °F55 %29.96 in10.0 miNNE (20°)10.4 mph18.4 mphOvercast
2:54 PM69.1 °F52.0 °F54 %29.95 in10.0 miNorth (10°)10.4 mphOvercast
3:54 PM70.0 °F51.1 °F51 %29.94 in10.0 miNE (50°)11.5 mphOvercast
4:54 PM66.9 °F52.0 °F59 %29.94 in10.0 miENE (70°)9.2 mphOvercast
5:54 PM66.0 °F52.0 °F60 %29.95 in10.0 miENE (70°)5.8 mphOvercast
6:54 PM64.0 °F55.9 °F75 %29.94 in10.0 miCalmMostly Cloudy
7:54 PM62.6 °F55.4 °F77 %29.96 in10.0 miWest (280°)3.5 mphOvercast
8:54 PM62.1 °F55.0 °F78 %29.96 in10.0 miCalmOvercast
9:54 PM60.1 °F55.9 °F86 %29.98 in10.0 miCalmOvercast
10:54 PM60.1 °F55.0 °F83 %29.97 in10.0 miCalmOvercast
11:54 PM59.0 °F55.0 °F87 %29.98 in10.0 miCalmOvercast
Hourly data recorded from KSUS, located miles away from St. Louis, Missouri







STORIES FROM OUR PARTNERS